This demonstration page uses our WeatherBlox Daily Observations layout. Learn more.

Left ArrowRight Arrow

38.83388, -104.82136

Hourly Observations for November 1, 2019

Temp ( °F °C ) Dew Point ( °F °C ) Humidity (%) Winds ( mph kmh ) Pressure ( in mb ) Visibility ( mi km ) Precip ( " mm )
7:58 am 07:58 Sunny 31 -0.5 8 -13.1 38 38 NNW 14 22 30.20 1023 10 16 0.00 0.00
8:58 am 08:58 Sunny 31 -0.6 12 -11.3 45 45 NNW 10 17 30.24 1024 10 16 0.00 0.00
9:59 am 09:59 Sunny N/A N/A N/A undefined N/A N/A N/A 0.00 0.00
10:58 am 10:58 Sunny 32 0 17 -8.6 53 53 SSE 12 19 30.28 1026 10 16 0.00 0.00
11:58 am 11:58 Sunny 30 -0.9 18 -7.6 61 61 SSE 13 20 30.33 1027 10 16 0.00 0.00
12:58 pm 12:58 Sunny 30 -1.1 20 -6.7 66 66 SSE 12 19 30.32 1027 10 16 0.00 0.00
1:58 pm 13:58 Mostly Cloudy 31 -0.6 21 -6.2 66 66 SSE 12 19 30.31 1026 10 16 0.00 0.00
2:58 pm 14:58 Mostly Cloudy 29 -1.4 20 -6.7 68 68 S 12 19 30.33 1027 10 16 0.00 0.00
3:13 pm 15:13 Mostly Cloudy 30 -1 19 -7 64 64 S 7 11 30.32 1027 10 16 0.00 0.00
3:28 pm 15:28 Mostly Cloudy 30 -1 21 -6 69 69 S 9 15 30.33 1027 10 16 0.00 0.00
3:43 pm 15:43 Mostly Cloudy 30 -1 19 -7 64 64 SSE 7 11 30.33 1027 10 16 0.00 0.00
3:58 pm 15:58 Mostly Cloudy 30 -0.9 20 -6.5 66 66 S 3 6 30.33 1027 10 16 0.00 0.00
4:58 pm 16:58 Mostly Cloudy 29 -1.5 22 -5.7 73 73 S 3 6 30.36 1028 10 16 0.00 0.00
5:08 pm 17:08 Mostly Cloudy with Light Rain 28 -2 21 -6 74 74 S 9 15 30.39 1029 10 16 0.00 0.00
5:12 pm 17:12 Cloudy with Light Wintry Mix 28 -2 21 -6 74 74 S 7 11 30.39 1029 10 16 0.00 0.00
5:16 pm 17:16 Cloudy with Light Rain/Snow 28 -2 21 -6 74 74 S 6 9 30.39 1029 10 16 0.00 0.00
5:28 pm 17:28 Cloudy 28 -2 21 -6 74 74 S 8 13 30.39 1029 10 16 0.00 0.00
5:58 pm 17:58 Mostly Cloudy 28 -2.1 21 -5.9 76 76 SSE 9 15 30.40 1030 10 16 0.00 0.00
6:40 pm 18:40 Cloudy 27 -3 21 -6 80 80 SE 8 13 30.45 1031 10 16 0.00 0.00
6:58 pm 18:58 Cloudy 26 -3.4 22 -5.7 84 84 SSE 6 9 30.47 1032 10 16 0.00 0.00
7:58 pm 19:58 Cloudy 26 -3.5 22 -5.7 85 85 SSE 6 9 30.19 1022 10 16 0.00 0.00
8:08 pm 20:08 Cloudy 27 -3 21 -6 80 80 S 6 9 30.18 1022 10 16 0.00 0.00
8:58 pm 20:58 Mostly Cloudy 26 -3.6 22 -5.6 86 86 S 6 9 30.19 1022 10 16 0.00 0.00
9:58 pm 21:58 Cloudy 25 -3.9 22 -5.5 89 89 SSE 5 7 30.20 1023 10 16 0.00 0.00
10:58 pm 22:58 Cloudy 24 -4.4 22 -5.6 91 91 Calm 30.19 1022 10 16 0.00 0.00
11:18 pm 23:18 Cloudy 25 -4 21 -6 86 86 SSE 3 6 30.18 1022 10 16 0.00 0.00
11:58 pm 23:58 Cloudy 24 -4.3 22 -5.5 91 91 Calm 30.50 1033 10 16 0.00 0.00

Powered by AerisWeather